CZ-6A DEB, 54504

Orbit data source: Space-Track

CZ-6A DEB, 54504 is space debris in SSO originally from a launch on Fri, 11 Nov 2022 UTC launched from the Taiyaun Space Center, China (TSC). Debris objects in space refer to the collection of defunct objects orbiting the Earth. Examples of debris include non-operational satellites, rocket bodies, and fragments generated from explosions, collisions, or faulty payload assembly.

Loading next visibility...
Identifier
54504, 2022-151JG
Orbit
SSO
Country
Flag of CNCN / PRC
Related business
Manufacturer
SAST
Mission
Spacecraft
Bus & Motor
Unknown
Mass
Unknown
Launch date (UTC)
2022-11-11 (4 years ago)
Launch vehicle
Unknown
Launch site
Taiyaun Space Center, China (TSC)
Object type
Payload
Rocket body
Debris
Shape & HBR
Unknown shape, 1.3 m
Radar Cross Section
Large (>1 m²)

Expand to show TLE details & history
Last TLE update: 2 days ago

TLE from 2 days ago
0 CZ-6A DEB
1 54504U 22151JG  26171.40786885  .00000616  00000-0  34203-3 0  9990
2 54504  98.8357 179.3682 0038052 286.1389  73.5597 14.14545202185616
Epoch: 2026-06-20T09:47Z
TLE epoch observation values (Epoch: 2026-06-20T09:47:19.868Z)
Latitude
-0.00004°
Longitude
123.9125°
Altitude
839.08 km
Speed
7.437 km/s
True Right ascension
11h 57m 28s
True Declination
0° 00' 00"
Sunlit
Object was in daylight at epoch
Visualization orbit readout
Latitude
Unknown
Longitude
Unknown
Altitude
Unknown
Speed
Unknown
Apparent Right ascension
Unknown
Apparent Declination
Unknown
Sunlit
N/A
Visualization observer readout
Local Sidereal Time
21:23:51
Azimuth
Unknown
Elevation
Unknown
Doppler factor
Unknown
Orbital elements
Apogee altitude
868.502 km
Perigee altitude
813.561 km
Semi-major axis
7,219.169 km
Eccentricity
0.00381
Inclination
98.8357°
RAAN
179.3682°
Arg. of periapsis
286.1389°
True anomaly
73.97848°
Mean anomaly
73.5597°
Eccentric anomaly
73.76903°
Mean motion
3.53844 °/min
Orbital period
101.74 mins
BSTAR
0.00034203
Loading maneuver chart data...
Computing Atmospheric mass density...
Loading historical data...
Loading historical data...
Loading historical data...
Loading historical data...
Loading historical data...
Loading historical data...
Loading historical data...

Documentation

Showing up to 5 results
|